RH
5 3 3 9 15 24 25 22 21 36 55 57 58 60 59 60 60 60 59 58 59 77 100 100 100 95 93
3 4 7 14 21 20 22 40 58 59 65 68 67 73 76 74 71 72 72 70 65 61 60 82 99 92 91
9 11 16 20 21 36 54 58 60 66 66 72 76 77 78 77 77 72 68 68 69 69 67 66 65 90 99
22 25 25 30 54 60 52 64 62 63 64 67 69 70 67 72 76 83 82 82 82 82 80 77 67 62 64
40 30 37 60 62 67 66 62 60 64 53 40 40 49 63 69 80 87 87 83 81 84 86 82 79 78 66
33 47 67 73 71 74 72 66 46 59 46 38 47 39 60 77 92 82 75 74 78 81 83 84 85 81 81
60 79 75 79 78 74 72 66 58 68 67 39 43 38 69 94 95 92 88 82 81 84 87 88 85 80 80
80 81 81 86 90 83 76 71 65 65 91 40 50 54 66 87 97 98 97 94 92 92 88 87 90 89 86
78 79 90 92 97 93 87 74 50 50 86 56 54 65 64 73 82 89 92 95 97 100 99 93 92 95 94
70 85 90 97 99 98 88 74 70 47 88 59 64 83 50 63 77 86 88 98 94 96 96 99 100 100 96
79 85 86 86 90 91 92 97 85 79 87 84 76 86 89 74 67 83 87 87 82 94 96 97 97 96 94
87 85 77 82 86 90 93 89 96 90 76 96 92 97 91 80 80 86 86 91 80 75 84 98 100 100 98
79 79 84 85 88 88 92 83 80 86 81 97 98 94 93 89 93 97 92 72 80 74 90 96 92 100 99
82 86 87 85 88 90 85 79 64 64 82 95 96 96 88 99 96 93 93 98 86 89 95 100 80 84 96
92 87 87 86 88 90 87 82 85 76 58 88 97 97 98 90 84 94 95 97 97 97 99 87 35 46 78
94 92 89 88 85 85 84 82 80 84 76 84 85 90 89 87 86 92 97 97 96 96 100 79 35 27 51
95 94 91 91 90 86 85 81 82 88 86 90 94 90 77 73 92 98 95 96 94 98 100 96 66 37 26
Wind_Speed
64 60 58 55 52 49 47 43 38 35 34 33 34 33 35 36 37 39 40 42 45 44 42 42 43 42 44
58 55 52 48 44 42 38 38 37 32 32 35 33 35 37 38 38 38 38 40 41 43 45 45 42 43 44
54 51 47 40 41 41 38 35 30 30 32 31 30 32 33 35 36 37 39 39 40 40 40 43 46 46 44
50 49 42 39 41 43 32 33 33 27 32 33 30 31 31 31 34 36 38 40 41 42 41 41 41 42 46
47 42 38 39 38 36 38 35 33 32 37 37 34 35 32 34 37 39 40 41 43 43 43 42 41 39 40
42 39 38 37 35 39 38 39 39 38 41 39 38 34 34 34 32 33 35 36 36 35 38 40 42 42 41
39 35 34 34 36 35 37 43 44 43 41 39 33 33 33 26 24 28 32 34 33 32 30 30 31 36 40
31 29 32 32 34 38 42 44 43 39 37 38 33 32 25 20 22 26 29 29 31 32 32 31 29 29 31
26 27 27 30 35 40 39 43 38 34 29 39 33 36 25 18 21 27 28 29 31 32 33 34 33 30 32
26 26 28 30 33 35 36 36 36 35 34 40 36 38 32 26 28 29 31 29 28 29 29 30 31 34 34
26 27 29 30 30 30 32 34 33 33 34 37 36 33 33 40 32 32 34 30 26 24 23 23 26 30 35
30 30 30 28 27 29 29 30 29 31 32 30 33 32 33 35 40 36 31 28 28 26 26 27 27 27 30
31 31 30 29 28 31 29 29 25 25 27 26 26 27 29 34 39 38 38 24 24 22 27 29 28 21 21
31 30 29 27 28 31 30 28 26 19 19 22 21 24 26 28 35 37 35 31 25 25 27 28 26 19 14
28 28 29 30 28 29 29 27 27 27 18 15 18 19 21 27 32 38 40 30 23 27 25 28 21 12 7
27 30 31 31 30 27 27 28 27 22 21 18 18 15 14 22 33 38 38 33 23 23 25 28 21 15 5
28 30 30 29 28 27 26 27 24 19 18 19 19 19 20 24 28 34 37 35 24 25 21 26 26 20 13
Wind_Direction
312 311 308 309 313 310 309 312 311 309 307 301 299 302 297 293 288 285 280 275 270 268 269 266 260 258 254
312 311 310 313 310 308 316 315 316 317 313 307 310 306 299 296 295 293 290 285 280 274 270 264 263 257 252
313 310 314 317 313 315 319 315 314 318 307 310 308 301 300 300 297 294 290 286 282 280 274 266 261 257 254
309 316 321 319 314 313 317 316 316 316 312 311 311 306 307 307 305 301 292 286 283 280 277 274 269 261 256
310 315 318 315 315 316 317 316 318 324 315 313 317 316 318 313 311 300 293 286 283 280 275 271 268 265 259
312 318 318 317 316 317 319 319 317 330 321 317 322 320 320 318 309 299 300 298 297 293 286 277 269 264 260
315 318 315 315 316 317 319 320 323 327 321 315 324 323 324 326 314 311 308 310 310 306 299 289 278 267 259
316 318 317 318 317 318 322 320 323 323 325 319 331 324 328 338 328 319 313 309 303 299 295 292 286 275 263
316 319 318 320 321 319 320 317 323 326 330 321 336 331 333 344 338 331 330 323 313 306 298 291 284 276 270
325 323 324 324 318 317 320 320 325 327 338 328 337 337 331 349 348 333 331 327 315 310 299 291 283 275 268
327 326 322 320 321 323 322 322 326 326 331 327 336 337 331 332 345 340 335 333 325 322 315 303 289 282 278
328 325 324 324 322 323 325 321 325 325 327 326 328 331 331 335 339 342 341 337 328 331 330 318 308 289 279
325 327 326 326 325 324 326 323 325 324 323 325 325 327 333 341 343 350 345 345 337 334 332 326 324 306 291
326 326 327 330 330 328 328 326 328 333 327 323 325 329 341 347 349 354 355 343 348 340 350 342 333 317 308
327 329 330 331 333 330 328 329 334 336 340 332 327 340 344 353 358 1 0 357 352 356 358 345 347 337 327
333 331 331 333 334 337 335 333 335 339 337 337 340 344 347 7 1 3 7 5 5 18 12 13 11 13 26
333 332 334 339 340 342 342 340 345 342 339 347 346 347 355 9 7 0 8 14 16 15 22 15 20 34 40